Погода в Раздоре

Россия / Астраханская область     46°04′29″N   48°13′13″E
темп.,
°C
ветер,
м/с
пор.,
м/с
влажн.,
%
обл.,
%
осадки,
мм/ч
давл.,
гПа
погр.,
м
16 мая, вс
вс1601:00+21в45450 0.0 101552
04:00+20в47500 0.0 101474
07:00+24юв514500 0.0 1014384
10:00+27юв811340 0.0 1015548
13:00+30юв911220 0.0 10151033
16:00+30вюв810210 0.0 10141037
19:00+26вюв511290 0.0 1013444
22:00+20в49560 0.0 1012148
17 мая, пн
пн1701:00+20в45560 0.0 101171
04:00+20в513470 0.0 1011203
07:00+24вюв714400 0.0 1011464
10:00+28юв913230 0.0 1012891
13:00+30юв911190 0.0 10121416
16:00+30юв811170 0.0 10111505
19:00+27в58295 0.0 1009372
22:00+21всв48522 0.0 1009106
18 мая, вт
вт1801:00+21всв48470 0.0 1008103
04:00+24вюв818345 0.0 1007414
07:00+25юв818340 0.0 1007696
10:00+28юв10162666 0.0 10081053
13:00+28ююв81324100 0.0 1009872
16:00+27юв6827100 0.0 1008439
19:00+26юв3628100 0.0 1009219
22:00+22ююз1241100 0.0 100913
19 мая, ср
ср1901:00+19зсз345691 0.0 100849
04:00+19сз4874100 0.0 1008163
07:00+21зсз576966 0.0 1008260
10:00+27зсз54405 0.0 1007833
13:00+31зсз532711 0.0 10081958
16:00+32з742550 0.0 10082025
19:00+26зсз10133996 0.0 1009747
22:00+19сз9166993 1.4 1013567
20 мая, чт
чт2001:00+18сз7156332 0.7 1014576
04:00+16сз511695 0.8 1016424
07:00+17сз610650 0.0 1017537
10:00+22зсз79420 0.0 10171117
13:00+25зсз78320 0.0 10171903
16:00+26зсз67301 0.0 10172263
19:00+25зсз66335 0.0 10172008
22:00+20сз47452 0.0 1018126